sat.trackr.live / text

‹ back to catalog

STARLINK-34418

NORAD 64461 · 2025-130Z

PAYLOAD ACTIVE UNKNOWN

§ Identity

Operator
Country
US
Launch date
2025-06-18
Launch site
AFETR
Launch vehicle
Mass (kg)
RCS (m²)

Purposes: comms

External: N2YO · Heavens-Above · Gunter

§ Orbital elements

Epoch: 2026-05-25T03:08:10.385664Z

Period
94.10 min
Inclination
53.1588°
Eccentricity
0.0001629
Mean motion
15.30206291 rev/d
Perigee alt
474.1 km
Apogee alt
476.3 km
Semi-major
6,853.3 km
B*
6.5711e-4
RAAN
93.6726°
Arg perigee
74.7419°
Mean anomaly
285.3761°
Rev number
5,240

§ Raw data

STARLINK-344181 64461U 25130Z   26145.13067576  .00019156  00000+0  65711-3 0  99992 64461  53.1588  93.6726 0001629  74.7419 285.3761 15.30206291 52408

JSON: /api/v1/satellites/64461 · /tle

For live sub-satellite position, see the globe view (requires WebGL).

§ Visibility from observer

Set your observer location to see the next 7 days of passes ≥ 10°. The values pass through the URL so the page stays shareable.

No JS? Fill the form by hand. The geolocation button needs JavaScript.